Terminal Aerodrome Forecast
Issued by NWS Detroit/Pontiac, MI

Home | Current Version | Previous Version | Text Only | Print | Product List | Glossary On
Versions: 1 2 3 4 5 6 7 8 9 10 11 12 13 14 15 16 17 18 19 20 21 22 23 24 25 26 27 28 29 30 31 32 33 34 35 36 37 38 39 40 41 42 43 44 45 46 47 48 49 50
000
FTUS43 KDTX 160525
TAFDTW
TAF
KDTW 160525Z 1606/1712 04005KT 5SM -DZ BR OVC004
      TEMPO 1608/1612 OVC008
     FM161200 05006KT P6SM VCSH OVC010
     FM162000 03005KT P6SM SCT015 OVC025
     FM170200 VRB04KT P6SM BKN025 OVC050=

USA.gov is the U.S. government's official web portal to all federal, state and local government web resources and services.